Weather reports worldwide

Advertisment
Oviedo, Spain (8015): temperature & dewpoint: 29.06.2020 12:00:00 - 05.07.2020 12:00:00 (CEST)Oviedo, Spain (8015): wind speed: 29.06.2020 12:00:00 - 05.07.2020 12:00:00 (CEST)Oviedo, Spain (8015): wind direction: 29.06.2020 12:00:00 - 05.07.2020 12:00:00 (CEST)Oviedo, Spain (8015): reduced air pressure: 29.06.2020 12:00:00 - 05.07.2020 12:00:00 (CEST)Oviedo, Spain (8015): visibility: 29.06.2020 12:00:00 - 05.07.2020 12:00:00 (CEST)Oviedo, Spain (8015): precipitation: 29.06.2020 12:00:00 - 05.07.2020 12:00:00 (CEST)
Date & Time tt [°C] td [°C] ff [km/h] ff [kn] dd ppp [hPa] vv [km] rr [mm]
05.07.2020 12:00:00 - - - - - - - -
05.07.2020 11:00:00 20,5 16,5 2 1 NW 1023,3 20 -
05.07.2020 10:00:00 - - - - - - - -
05.07.2020 09:00:00 - - - - - - - -
05.07.2020 08:00:00 17,6 14,5 2 1 S 1023,7 19 -
05.07.2020 07:00:00 18,2 14,3 5 3 S 1023,6 18 0,0
05.07.2020 06:00:00 18,3 14,2 0 0 N 1023,6 19 0,0
05.07.2020 05:00:00 18,6 14,3 2 1 SSE 1023,4 17 -
05.07.2020 04:00:00 19,0 14,9 5 3 S 1023,6 17 0,0
05.07.2020 03:00:00 19,3 15,0 2 1 SW 1024,0 17 0,0
05.07.2020 02:00:00 19,7 14,5 2 1 S 1024,6 16 -
05.07.2020 01:00:00 20,4 14,5 2 1 E 1024,8 19 0,0
05.07.2020 00:00:00 20,6 14,5 5 3 E 1024,9 19 0,0
04.07.2020 23:00:00 21,1 14,7 8 4 E 1024,9 20 -
04.07.2020 22:00:00 21,5 13,9 8 4 E 1024,6 20 0,0
04.07.2020 21:00:00 22,4 11,5 9 5 ENE 1024,2 20 0,0
04.07.2020 20:00:00 24,3 11,3 8 4 ENE 1023,3 20 -
04.07.2020 19:00:00 23,9 15,1 9 5 ENE 1023,2 20 0,0
04.07.2020 18:00:00 24,4 16,1 9 5 NE 1023,4 20 0,0
04.07.2020 17:00:00 24,5 16,2 11 6 ENE 1023,4 20 -
04.07.2020 16:00:00 24,9 15,8 9 5 ENE 1023,2 20 0,0
04.07.2020 15:00:00 24,9 16,1 9 5 NE 1023,3 20 0,0
04.07.2020 14:00:00 24,7 12,0 8 4 NE 1023,7 20 -
04.07.2020 13:00:00 23,5 12,5 5 3 NE 1024,0 20 0,0
04.07.2020 12:00:00 20,9 13,3 4 2 NNW 1024,6 20 0,0
04.07.2020 11:00:00 18,7 14,0 4 2 NW 1024,6 20 -
04.07.2020 10:00:00 18,2 13,7 4 2 SSE 1024,5 20 0,0
04.07.2020 09:00:00 15,6 12,7 5 3 S 1025,3 20 0,0
04.07.2020 08:00:00 12,4 11,9 5 3 S 1025,6 16 -
04.07.2020 07:00:00 12,0 11,5 4 2 S 1025,4 14 0,0
04.07.2020 06:00:00 12,3 11,8 5 3 S 1024,9 17 0,0
04.07.2020 05:00:00 12,5 12,0 5 3 S 1025,1 10 -
04.07.2020 04:00:00 12,9 11,8 4 2 W 1025,3 16 0,0
04.07.2020 03:00:00 13,4 12,0 2 1 SSW 1025,0 19 0,0
04.07.2020 02:00:00 14,2 12,1 2 1 WNW 1025,3 20 -
04.07.2020 01:00:00 14,9 12,4 0 0 N 1025,8 20 0,0
04.07.2020 00:00:00 15,8 12,4 5 3 E 1025,7 20 0,0
03.07.2020 23:00:00 16,0 12,2 5 3 ENE 1025,6 20 -
03.07.2020 22:00:00 16,4 12,0 4 2 NE 1024,9 20 0,0
03.07.2020 21:00:00 17,1 11,8 9 5 NE 1024,7 20 0,0
03.07.2020 20:00:00 17,5 11,7 9 5 NE 1024,6 20 -
03.07.2020 19:00:00 18,3 12,3 8 4 ENE 1024,5 20 0,0
03.07.2020 18:00:00 18,9 12,2 15 8 NE 1024,2 20 0,0
03.07.2020 17:00:00 19,9 12,4 13 7 NE 1023,7 20 -
03.07.2020 16:00:00 20,4 12,1 9 5 ENE 1023,6 20 0,0
03.07.2020 15:00:00 20,2 12,2 8 4 NNE 1023,8 20 0,0
03.07.2020 14:00:00 21,6 11,9 11 6 ESE 1024,1 20 -
03.07.2020 13:00:00 20,5 11,9 8 4 SSE 1024,7 20 0,0
03.07.2020 12:00:00 18,9 11,7 8 4 ENE 1024,9 20 0,0
03.07.2020 11:00:00 17,5 12,2 4 2 SSE 1024,9 20 -
03.07.2020 10:00:00 14,3 12,7 4 2 S 1025,2 20 0,0
03.07.2020 09:00:00 13,4 12,3 2 1 SW 1025,2 20 0,0
03.07.2020 08:00:00 12,2 11,7 4 2 S 1025,2 15 -
03.07.2020 07:00:00 12,0 11,7 5 3 S 1024,9 16 0,0
03.07.2020 06:00:00 12,2 11,6 4 2 S 1024,9 19 0,0
03.07.2020 05:00:00 12,5 11,6 2 1 S 1024,7 20 -
03.07.2020 04:00:00 12,6 11,7 4 2 SSE 1024,8 20 0,0
03.07.2020 03:00:00 12,9 12,4 4 2 S 1025,2 18 0,0
03.07.2020 02:00:00 13,0 12,4 5 3 S 1025,5 16 -
03.07.2020 01:00:00 13,3 12,7 5 3 S 1025,5 18 0,0
03.07.2020 00:00:00 13,4 11,3 2 1 N 1025,5 17 0,0
02.07.2020 23:00:00 14,1 13,3 5 3 S 1024,9 19 -
02.07.2020 22:00:00 14,2 12,6 0 0 N 1024,4 20 0,0
02.07.2020 21:00:00 14,6 12,5 4 2 WSW 1024,0 20 0,0
02.07.2020 20:00:00 14,8 13,3 5 3 SSW 1023,6 20 -
02.07.2020 19:00:00 13,9 11,8 2 1 WNW 1023,5 19 0,0
02.07.2020 18:00:00 13,9 12,8 4 2 NW 1023,4 - 0,2
02.07.2020 17:00:00 15,3 14,0 5 3 S 1022,7 15 -
02.07.2020 16:00:00 15,4 13,8 8 4 S 1022,3 16 0,2
02.07.2020 15:00:00 16,3 13,6 9 5 SE 1021,8 9 0,0
02.07.2020 14:00:00 16,2 12,6 5 3 N 1021,6 20 -
02.07.2020 13:00:00 16,7 12,4 9 5 NNW 1021,1 20 0,0
02.07.2020 12:00:00 16,9 12,2 8 4 NW 1020,7 20 0,0
02.07.2020 11:00:00 15,9 11,3 5 3 WNW 1020,4 20 -
02.07.2020 10:00:00 15,4 13,6 4 2 S 1020,0 20 0,0
02.07.2020 09:00:00 14,0 13,2 2 1 N 1020,0 19 0,0
02.07.2020 08:00:00 13,8 13,0 4 2 WSW 1019,4 20 -
02.07.2020 07:00:00 13,4 12,6 5 3 WSW 1019,3 20 0,0
02.07.2020 06:00:00 13,6 13,4 8 4 SW 1019,1 12 0,0
02.07.2020 05:00:00 13,7 13,5 5 3 S 1018,9 7 -
02.07.2020 04:00:00 13,9 13,9 4 2 S 1018,9 - 0,0
02.07.2020 03:00:00 14,0 14,0 5 3 SSW 1019,0 16 0,0
02.07.2020 02:00:00 13,7 13,5 4 2 W 1019,2 20 -
02.07.2020 01:00:00 13,7 13,7 4 2 WNW 1019,3 8 0,2
02.07.2020 00:00:00 14,0 14,0 4 2 WNW 1019,2 2,0 0,0
01.07.2020 23:00:00 14,2 14,2 5 3 NW 1019,0 6 -
01.07.2020 22:00:00 14,4 14,4 5 3 NW 1018,5 0,5 0,0
01.07.2020 21:00:00 14,8 14,6 4 2 NW 1018,0 0,5 0,8
01.07.2020 20:00:00 15,2 14,9 2 1 WNW 1017,8 2,5 -
01.07.2020 19:00:00 15,5 15,0 8 4 N 1017,5 - 0,0
01.07.2020 18:00:00 15,8 15,3 4 2 WNW 1017,7 3,2 0,0
01.07.2020 17:00:00 16,3 15,2 8 4 NNW 1017,4 6 -
01.07.2020 16:00:00 16,8 15,3 8 4 NNW 1017,0 12 0,0
01.07.2020 15:00:00 16,8 15,7 8 4 NNW 1016,7 16 0,0
01.07.2020 14:00:00 17,7 15,9 11 6 N 1016,0 20 -
01.07.2020 13:00:00 19,7 16,5 11 6 NNE 1015,2 20 0,0
01.07.2020 12:00:00 21,6 16,8 9 5 E 1014,4 20 0,0
01.07.2020 11:00:00 20,6 16,4 5 3 NNE 1014,4 20 -
01.07.2020 10:00:00 19,9 16,5 2 1 S 1014,2 20 0,0
01.07.2020 09:00:00 18,4 16,0 4 2 SSE 1014,2 20 0,0
01.07.2020 08:00:00 17,9 15,9 2 1 SSW 1014,0 20 -
01.07.2020 07:00:00 17,6 15,6 4 2 WNW 1013,8 20 0,0
01.07.2020 06:00:00 18,2 16,2 2 1 WSW 1013,3 20 0,0
01.07.2020 05:00:00 18,5 16,5 2 1 SSW 1013,0 20 -
01.07.2020 04:00:00 18,7 15,9 2 1 W 1013,1 20 0,0
01.07.2020 03:00:00 18,8 15,7 5 3 S 1013,4 20 0,0
01.07.2020 02:00:00 19,0 15,7 2 1 SSE 1013,9 20 -
01.07.2020 01:00:00 19,2 15,7 2 1 S 1014,3 20 0,0
01.07.2020 00:00:00 19,5 16,2 4 2 S 1014,3 20 0,0
30.06.2020 23:00:00 19,8 15,4 5 3 E 1014,0 20 -
30.06.2020 22:00:00 20,5 15,9 2 1 W 1013,6 20 0,0
30.06.2020 21:00:00 21,5 15,8 5 3 ENE 1013,1 19 0,0
30.06.2020 20:00:00 23,3 16,1 8 4 NNE 1012,4 20 -
30.06.2020 19:00:00 23,6 15,4 9 5 ENE 1012,6 20 0,0
30.06.2020 18:00:00 23,8 15,8 11 6 ENE 1012,5 20 0,0
30.06.2020 17:00:00 23,6 16,1 11 6 ENE 1013,0 20 -
30.06.2020 16:00:00 24,2 16,7 13 7 ENE 1013,1 20 0,0
30.06.2020 15:00:00 25,2 17,1 11 6 ENE 1013,4 20 0,0
30.06.2020 14:00:00 24,3 16,6 8 4 ENE 1013,9 20 -
30.06.2020 13:00:00 23,5 15,3 5 3 NE 1014,4 20 0,0
30.06.2020 12:00:00 22,4 14,0 5 3 NE 1014,8 20 0,0
30.06.2020 11:00:00 21,6 15,0 2 1 SSW 1015,2 20 -
30.06.2020 10:00:00 19,3 15,0 5 3 S 1015,7 20 0,0
30.06.2020 09:00:00 17,3 14,6 2 1 SSW 1016,2 19 0,0
30.06.2020 08:00:00 13,8 13,6 8 4 S 1016,7 15 -
30.06.2020 07:00:00 13,2 13,2 8 4 S 1017,0 0,7 0,0
30.06.2020 06:00:00 13,6 13,6 8 4 S 1017,0 0,1 0,0
30.06.2020 05:00:00 13,9 13,7 5 3 S 1017,3 0,2 -
30.06.2020 04:00:00 14,4 14,2 5 3 S 1018,0 1,0 0,0
30.06.2020 03:00:00 14,5 14,2 5 3 S 1018,7 2,5 0,0
30.06.2020 02:00:00 14,8 14,0 2 1 SE 1019,3 8 -
30.06.2020 01:00:00 15,3 14,5 2 1 WNW 1019,6 12 0,0
30.06.2020 00:00:00 15,9 14,6 2 1 E 1019,7 20 0,0
29.06.2020 23:00:00 16,5 14,7 4 2 ENE 1019,5 20 -
29.06.2020 22:00:00 17,7 14,8 5 3 E 1019,2 20 0,0
29.06.2020 21:00:00 18,8 15,1 5 3 ENE 1019,2 0,8 0,0
29.06.2020 20:00:00 20,3 15,5 5 3 E 1019,0 20 -
29.06.2020 19:00:00 20,4 15,2 4 2 WSW 1019,3 19 0,0
29.06.2020 18:00:00 19,1 15,4 5 3 E 1019,8 19 0,0
29.06.2020 17:00:00 17,6 15,0 4 2 NNE 1020,6 16 -
29.06.2020 16:00:00 17,2 15,4 4 2 WNW 1021,1 15 0,0
29.06.2020 15:00:00 17,7 15,1 5 3 E 1021,4 15 0,0
29.06.2020 14:00:00 17,0 15,3 9 5 NE 1021,9 14 -
29.06.2020 13:00:00 16,6 15,6 9 5 ENE 1022,0 7 0,0
29.06.2020 12:00:00 16,2 15,4 8 4 ENE 1022,0 8 0,0

tt = temperature
td = dewpoint
ff = wind speed
dd = wind direction
ppp = reduced air pressure
vv = visibility
rr = precipitation

Next stations